Content
SEND FEEDBACK

Daily
Averages
Monthly
Summary
Germany

LUBECK, GERMANY


Home > Europe > Germany
Elevation: 56 feet     Latitude: 54 00N     Longitude: 011 12E

WEATHER
 
SELECT A DAY
Number of Records: 58,280;   Date Range: 7/3/96 - 7/25/14
 
SHARE

PRINT THIS DATA

[ ← Previous Day ]
WEATHER ALMANAC - JULY 11, 2013
[ Next Day → ]
[ °C ]   °F
Weather ElementAverageHighLow
Temperature68.3 °F73.4 °F (2:20 pm)57.2 °F (7:20 am)
Dewpoint49.3 °F55.4 °F (7:20 am)42.8 °F (4:20 pm)
Humidity52.9 %94 % (7:20 am)35 % (4:20 pm)
Barometer30.09 in30.09 in (7:20 am)30.06 in (6:20 pm)
Wind Speed9.7 mph15 mph (1:50 pm)
Wind Gust21.9 mph (3:50 pm)
Weather ElementAverage
Visibility6.2 mi
Wind DirectionWSW (259.3 °)

Weather ElementTotal
Precipitation---
Cooling Degree Days0.3 (Base 65)
Growing Degree Days15.3 (Base 50)
Averaged from 30 records on July 11, 2013
WEATHER CONDITIONS BREAKOUT
WIND DIRECTION BREAKOUT
WEATHER BY HOUR - JULY 11, 2013
[ °C ]   °F
Local TimeTemperatureDewpointHumidityBarometerVisibilityWind DirectionWind SpeedGust SpeedPrecipitationEventsConditions
7:20 AM57.2 °F55.4 °F94 %30.09 inVariable2.3 mphClear
7:50 AM59.0 °F55.4 °F88 %30.09 inVariable2.3 mphClear
8:20 AM62.6 °F53.6 °F72 %30.09 inVariable4.6 mphClear
8:50 AM62.6 °F53.6 °F72 %30.09 inVariable4.6 mphClear
9:20 AM64.4 °F55.4 °F73 %30.09 in6.2 miVariable3.5 mphPartly Cloudy
9:50 AM66.2 °F51.8 °F60 %30.09 in6.2 miNorth (360°)10.4 mphPartly Cloudy
10:20 AM66.2 °F50.0 °F56 %30.09 in6.2 miNorth (360°)11.5 mphPartly Cloudy
10:50 AM68.0 °F50.0 °F52 %30.09 in6.2 miNorth (350°)13.8 mphPartly Cloudy
11:20 AM68.0 °F48.2 °F49 %30.09 in6.2 miNorth (350°)12.7 mphPartly Cloudy
11:50 AM68.0 °F46.4 °F46 %30.09 in6.2 miNNW (330°)12.7 mphPartly Cloudy
12:20 PM71.6 °F50.0 °F46 %30.09 inNorth (350°)12.7 mphClear
12:50 PM69.8 °F46.4 °F43 %30.09 inNNW (340°)11.5 mphClear
1:20 PM71.6 °F48.2 °F43 %30.09 inNorth (350°)12.7 mphClear
1:50 PM69.8 °F46.4 °F43 %30.09 inNNW (330°)15.0 mphClear
2:20 PM73.4 °F46.4 °F38 %30.09 inNorth (10°)11.5 mphClear
2:50 PM73.4 °F48.2 °F41 %30.09 inNNW (340°)13.8 mphClear
3:20 PM73.4 °F46.4 °F38 %30.09 inNorth (350°)11.5 mphClear
3:50 PM73.4 °F48.2 °F41 %30.09 inNorth (10°)10.4 mph21.9 mphClear
4:20 PM71.6 °F42.8 °F35 %30.09 inNorth (360°)12.7 mphClear
4:50 PM73.4 °F44.6 °F36 %30.09 inNorth (360°)11.5 mphClear
5:20 PM71.6 °F44.6 °F38 %30.09 inNorth (350°)11.5 mphClear
5:50 PM71.6 °F46.4 °F41 %30.09 inNNW (330°)11.5 mphClear
6:20 PM71.6 °F44.6 °F38 %30.06 inNNW (340°)11.5 mphClear
6:50 PM71.6 °F46.4 °F41 %30.06 inNorth (360°)10.4 mphClear
7:20 PM71.6 °F44.6 °F38 %30.06 inNorth (350°)9.2 mphClear
7:50 PM69.8 °F46.4 °F43 %30.09 inNorth (350°)8.1 mphClear
8:20 PM68.0 °F55.4 °F64 %30.09 inWNW (300°)10.4 mphClear
8:50 PM66.2 °F55.4 °F68 %30.09 inWNW (290°)6.9 mphClear
9:20 PM62.6 °F53.6 °F72 %30.09 inWest (280°)5.8 mphClear
9:50 PM60.8 °F53.6 °F77 %30.09 inWest (280°)4.6 mphClear
Hourly data recorded from EDHL, located miles away from Lubeck, Germany







STORIES FROM OUR PARTNERS